Regional Weather Roundup
Issued by NWS Albany, NY

Home | Current Version | Previous Version | Text Only | Print | Product List | Glossary On
Versions: 1 2 3 4 5 6 7 8 9 10 11 12 13 14 15 16 17 18 19 20 21 22 23 24 25 26 27 28
000
ASUS41 KALY 221410
RWRALY

NEW YORK STATE HOURLY WEATHER ROUNDUP
NATIONAL WEATHER SERVICE ALBANY NY
1000 AM EDT FRI SEP 22 2017

NOTE: "FAIR" INDICATES FEW OR NO CLOUDS BELOW 12,000 FEET WITH NO
SIGNIFICANT WEATHER AND/OR NO OBSTRUCTIONS TO VISIBILITY.

NYZ032-033-038>043-046>054-057>066-NYZ062>081-082-084-221500-
EAST


CITY           SKY/WX    TMP DP  RH WIND       PRES   REMARKS
ALBANY         PTSUNNY   68  56  65 N7        30.12S
GLENS FALLS    CLOUDY    66  56  70 N9        30.13S
POUGHKEEPSIE   MOSUNNY   70  52  52 N10G22    30.05F
NEWBURGH       MOSUNNY   68  54  60 NE12G23   30.08S
MONTGOMERY     MOSUNNY   70  56  61 N12       30.07S
WHITE PLAINS   MOSUNNY   70  47  43 N17       30.01F
ISLIP          MOSUNNY   72  53  51 N17G28    29.97S
NEW YORK CITY  MOSUNNY   71  50  47 N15G24    30.01S
CENTRAL PARK   MOSUNNY   72  49  44 VRB7G17   30.05S
$$

NYZ005>009-017-018-044>046-055-056-221500-
CENTRAL


CITY           SKY/WX    TMP DP  RH WIND       PRES   REMARKS
FULTON         MOSUNNY   68  58  70 NW5       30.15R
SYRACUSE       FOG       60  60 100 CALM      30.14R VSB 1/2
ROME           MOSUNNY   60  55  83 CALM      30.16R
ELMIRA         MOSUNNY   64  62  93 CALM      30.15S
BINGHAMTON     MOSUNNY   64  53  67 NE5       30.16R
MONTICELLO     SUNNY     67  54  63 NW3       30.12R
$$

NYZ026>034-041>043-087-221500-
NORTH


CITY           SKY/WX    TMP DP  RH WIND       PRES   REMARKS
WATERTOWN      MOSUNNY   63  57  81 E8        30.15S
FORT DRUM      NOT AVBL
OGDENSBURG     FAIR      68  59  72 E5        30.17S
MASSENA        SUNNY     66  59  78 E6        30.18S
SARANAC LAKE   SUNNY     66  47  50 NE13      30.17S
PLATTSBURGH    SUNNY     66  52  60 N6        30.16S
$$

NYZ001>004-010>016-019>021-085-221500-
WEST


CITY           SKY/WX    TMP DP  RH WIND       PRES   REMARKS
NIAGARA FALLS  MOSUNNY   72  62  71 CALM      30.16R
BUFFALO        PTSUNNY   70  60  70 E3        30.16S
DUNKIRK        CLOUDY    71  59  65 E3        30.16S
JAMESTOWN      MOSUNNY   66  61  84 NE3       30.19S
WELLSVILLE     CLOUDY    61  58  90 NW5       30.21R
ROCHESTER      CLOUDY    71  66  84 CALM      30.16R
PENN YAN       CLOUDY    65  61  87 CALM      30.17R
$$

             KEY
       WCI = WIND CHILL INDEX
       VSB = VISIBILITY
       HX  = HEAT INDEX
$$




USA.gov is the U.S. government's official web portal to all federal, state and local government web resources and services.